START_TIME,STEP,MOV.,M34,t_acc.,L5,t_acc.,L18,t_acc.,L14,t_acc.
1979-07-05 21:00:25.420 ,0,0,0.,12.0,0.,12.0,0.,12.0,0.,12.0
1979-07-05 21:00:37.420 ,0,0,0.,12.0,0.,12.0,0.,12.0,0.,12.0
1979-07-05 21:00:49.420 ,0,1,0.,12.0,0.,12.0,0.,12.0,0.,12.0
1979-07-05 21:01:01.420 ,0,1,2.,12.0,0.,12.0,0.,12.0,0.,12.0
1979-07-05 21:01:13.420 ,0,0,1.,12.0,0.,12.0,0.,12.0,0.,12.0
1979-07-05 21:01:25.420 ,0,0,3.,12.0,0.,12.0,0.,12.0,0.,12.0
1979-07-05 21:01:37.410 ,1,1,0.,12.0,0.,12.0,0.,12.0,0.,12.0
1979-07-05 21:01:49.420 ,1,1,5.,12.0,0.,12.0,0.,12.0,0.,12.0
1979-07-05 21:02:01.410 ,1,0,0.,12.0,0.,12.0,0.,12.0,0.,12.0
1979-07-05 21:02:13.410 ,1,0,2.,12.0,0.,12.0,0.,12.0,0.,12.0
1979-07-05 21:02:25.410 ,2,1,1.,12.0,0.,12.0,0.,12.0,0.,12.0
1979-07-05 21:02:37.420 ,2,1,0.,12.0,0.,12.0,0.,12.0,0.,12.0
1979-07-05 21:02:49.410 ,2,0,1.,12.0,0.,12.0,0.,12.0,0.,12.0
1979-07-05 21:03:01.420 ,2,0,1.,12.0,0.,12.0,0.,12.0,0.,12.0
1979-07-05 21:03:13.410 ,3,1,0.,12.0,0.,12.0,0.,12.0,0.,12.0
1979-07-05 21:03:25.420 ,3,1,1.,12.0,0.,12.0,0.,12.0,0.,12.0
1979-07-05 21:03:37.410 ,3,0,0.,12.0,0.,12.0,0.,12.0,0.,12.0
1979-07-05 21:03:49.420 ,3,0,2.,12.0,0.,12.0,0.,12.0,0.,12.0
1979-07-05 21:04:01.410 ,4,1,0.,12.0,0.,12.0,0.,12.0,0.,12.0
1979-07-05 21:04:13.410 ,4,1,1.,12.0,0.,12.0,0.,12.0,0.,12.0
1979-07-05 21:04:25.420 ,4,0,3.,12.0,0.,12.0,0.,12.0,0.,12.0
1979-07-05 21:04:37.420 ,4,0,2.,12.0,0.,12.0,0.,12.0,0.,12.0
1979-07-05 21:04:49.420 ,5,1,0.,12.0,0.,12.0,0.,12.0,0.,12.0
1979-07-05 21:05:01.420 ,5,1,0.,12.0,0.,12.0,0.,12.0,0.,12.0
1979-07-05 21:05:13.420 ,5,0,1.,12.0,0.,12.0,0.,12.0,0.,12.0
1979-07-05 21:05:25.420 ,5,0,1.,12.0,0.,12.0,0.,12.0,0.,12.0
1979-07-05 21:05:37.420 ,6,1,0.,12.0,0.,12.0,0.,12.0,0.,12.0
1979-07-05 21:05:49.420 ,6,1,2.,12.0,0.,12.0,0.,12.0,0.,12.0
1979-07-05 21:06:01.420 ,6,0,1.,12.0,0.,12.0,0.,12.0,0.,12.0
1979-07-05 21:06:13.420 ,6,0,1.,12.0,0.,12.0,0.,12.0,0.,12.0
1979-07-05 21:06:25.420 ,7,1,3.,12.0,0.,12.0,0.,12.0,0.,12.0
1979-07-05 21:06:37.420 ,7,1,1.,12.0,0.,12.0,0.,12.0,0.,12.0
1979-07-05 21:06:49.420 ,7,0,0.,12.0,0.,12.0,0.,12.0,0.,12.0
1979-07-05 21:07:01.420 ,7,0,0.,12.0,0.,12.0,0.,12.0,0.,12.0
1979-07-05 21:07:13.420 ,7,1,0.,12.0,0.,12.0,0.,12.0,0.,12.0
1979-07-05 21:07:25.420 ,7,1,0.,12.0,0.,12.0,0.,12.0,0.,12.0
1979-07-05 21:07:37.420 ,7,0,0.,12.0,0.,12.0,0.,12.0,0.,12.0
1979-07-05 21:07:49.420 ,7,0,0.,12.0,0.,12.0,0.,12.0,0.,12.0
1979-07-05 21:08:01.420 ,6,1,0.,12.0,0.,12.0,0.,12.0,0.,12.0
1979-07-05 21:08:13.420 ,6,1,3.,12.0,0.,12.0,0.,12.0,0.,12.0
1979-07-05 21:08:25.420 ,6,0,4.,12.0,0.,12.0,0.,12.0,0.,12.0
1979-07-05 21:08:37.410 ,6,0,1.,12.0,0.,12.0,0.,12.0,0.,12.0
1979-07-05 21:08:49.420 ,5,1,3.,12.0,0.,12.0,0.,12.0,0.,12.0
1979-07-05 21:09:01.420 ,5,1,1.,12.0,0.,12.0,0.,12.0,0.,12.0
1979-07-05 21:09:13.420 ,5,0,2.,12.0,0.,12.0,0.,12.0,0.,12.0
1979-07-05 21:09:25.420 ,5,0,0.,12.0,0.,12.0,0.,12.0,0.,12.0
1979-07-05 21:09:37.420 ,4,1,1.,12.0,0.,12.0,0.,12.0,0.,12.0
1979-07-05 21:09:49.420 ,4,1,3.,12.0,0.,12.0,0.,12.0,0.,12.0
1979-07-05 21:10:01.420 ,4,0,5.,12.0,0.,12.0,0.,12.0,0.,12.0
1979-07-05 21:10:13.420 ,4,0,2.,12.0,0.,12.0,0.,12.0,0.,12.0
1979-07-05 21:10:25.420 ,3,1,3.,12.0,0.,12.0,0.,12.0,0.,12.0
1979-07-05 21:10:37.420 ,3,1,3.,12.0,0.,12.0,0.,12.0,0.,12.0
1979-07-05 21:10:49.420 ,3,0,4.,12.0,0.,12.0,0.,12.0,0.,12.0
1979-07-05 21:11:01.420 ,3,0,3.,12.0,0.,12.0,0.,12.0,0.,12.0
1979-07-05 21:11:13.420 ,2,1,2.,12.0,0.,12.0,0.,12.0,0.,12.0
1979-07-05 21:11:25.420 ,2,1,4.,12.0,0.,12.0,0.,12.0,0.,12.0
1979-07-05 21:11:37.420 ,2,0,6.,12.0,0.,12.0,0.,12.0,0.,12.0
1979-07-05 21:11:49.420 ,2,0,3.,12.0,0.,12.0,0.,12.0,0.,12.0
1979-07-05 21:12:01.420 ,1,1,4.,12.0,0.,12.0,0.,12.0,0.,12.0
1979-07-05 21:12:13.420 ,1,1,2.,12.0,0.,12.0,0.,12.0,0.,12.0
1979-07-05 21:12:25.420 ,1,0,2.,12.0,0.,12.0,0.,12.0,0.,12.0
1979-07-05 21:12:37.420 ,1,0,3.,12.0,0.,12.0,0.,12.0,0.,12.0
1979-07-05 21:12:49.420 ,0,1,3.,12.0,0.,12.0,0.,12.0,0.,12.0
1979-07-05 21:13:01.420 ,0,1,3.,12.0,0.,12.0,0.,12.0,0.,12.0
1979-07-05 21:13:13.420 ,0,0,3.,12.0,0.,12.0,0.,12.0,0.,12.0
1979-07-05 21:13:25.420 ,0,0,3.,12.0,0.,12.0,0.,12.0,0.,12.0
1979-07-05 21:13:37.420 ,0,1,1.,12.0,0.,12.0,0.,12.0,0.,12.0
1979-07-05 21:13:49.420 ,0,1,4.,12.0,0.,12.0,0.,12.0,0.,12.0
1979-07-05 21:14:01.420 ,0,0,3.,12.0,0.,12.0,0.,12.0,0.,12.0
1979-07-05 21:14:13.420 ,0,0,2.,12.0,0.,12.0,0.,12.0,0.,12.0
1979-07-05 21:14:25.420 ,1,1,6.,12.0,0.,12.0,0.,12.0,0.,12.0
1979-07-05 21:14:37.420 ,1,1,2.,12.0,0.,12.0,0.,12.0,0.,12.0
1979-07-05 21:14:49.420 ,1,0,3.,12.0,0.,12.0,0.,12.0,0.,12.0
1979-07-05 21:15:01.420 ,1,0,1.,12.0,0.,12.0,0.,12.0,0.,12.0
1979-07-05 21:15:13.420 ,2,1,3.,12.0,0.,12.0,0.,12.0,0.,12.0
1979-07-05 21:15:25.420 ,2,1,5.,12.0,0.,12.0,0.,12.0,0.,12.0
1979-07-05 21:15:37.420 ,2,0,2.,12.0,0.,12.0,0.,12.0,0.,12.0
1979-07-05 21:15:49.420 ,2,0,4.,12.0,0.,12.0,0.,12.0,0.,12.0
1979-07-05 21:16:01.420 ,3,1,8.,12.0,0.,12.0,0.,12.0,0.,12.0
1979-07-05 21:16:13.420 ,3,1,2.,12.0,0.,12.0,0.,12.0,0.,12.0
1979-07-05 21:16:25.420 ,3,0,4.,12.0,0.,12.0,0.,12.0,0.,12.0
1979-07-05 21:16:37.420 ,3,0,3.,12.0,0.,12.0,0.,12.0,0.,12.0
1979-07-05 21:16:49.420 ,4,1,2.,12.0,0.,12.0,0.,12.0,0.,12.0
1979-07-05 21:17:01.420 ,4,1,1.,12.0,0.,12.0,0.,12.0,0.,12.0
1979-07-05 21:17:13.410 ,4,0,2.,12.0,0.,12.0,0.,12.0,0.,12.0
1979-07-05 21:17:25.410 ,4,0,11.,12.0,0.,12.0,0.,12.0,0.,12.0
1979-07-05 21:17:37.410 ,5,1,4.,12.0,0.,12.0,0.,12.0,0.,12.0
1979-07-05 21:17:49.410 ,5,1,8.,12.0,0.,12.0,0.,12.0,0.,12.0
1979-07-05 21:18:01.410 ,5,0,19.,12.0,0.,12.0,0.,12.0,0.,12.0
1979-07-05 21:18:13.410 ,5,0,12.,12.0,0.,12.0,0.,12.0,0.,12.0
1979-07-05 21:18:25.410 ,6,1,10.,12.0,0.,12.0,0.,12.0,0.,12.0
1979-07-05 21:18:37.410 ,6,1,11.,12.0,0.,12.0,0.,12.0,0.,12.0
1979-07-05 21:18:49.410 ,6,0,11.,12.0,0.,12.0,0.,12.0,0.,12.0
1979-07-05 21:19:01.410 ,6,0,9.,12.0,0.,12.0,0.,12.0,0.,12.0
1979-07-05 21:19:13.410 ,7,1,9.,12.0,0.,12.0,0.,12.0,0.,12.0
1979-07-05 21:19:25.410 ,7,1,1.,12.0,0.,12.0,0.,12.0,0.,12.0
1979-07-05 21:19:37.410 ,7,0,0.,12.0,0.,12.0,0.,12.0,0.,12.0
1979-07-05 21:19:49.410 ,7,0,0.,12.0,0.,12.0,0.,12.0,0.,12.0
1979-07-05 21:20:01.410 ,7,1,0.,12.0,0.,12.0,0.,12.0,0.,12.0
1979-07-05 21:20:13.410 ,7,1,0.,12.0,0.,12.0,0.,12.0,0.,12.0
1979-07-05 21:20:25.410 ,7,0,0.,12.0,0.,12.0,0.,12.0,0.,12.0
1979-07-05 21:20:37.410 ,7,0,0.,12.0,0.,12.0,0.,12.0,0.,12.0
1979-07-05 21:20:49.410 ,6,1,0.,12.0,0.,12.0,0.,12.0,0.,12.0
1979-07-05 21:21:01.410 ,6,1,6.,12.0,0.,12.0,0.,12.0,0.,12.0
1979-07-05 21:21:13.410 ,6,0,9.,12.0,0.,12.0,0.,12.0,0.,12.0
1979-07-05 21:21:25.410 ,6,0,8.,12.0,0.,12.0,0.,12.0,0.,12.0
1979-07-05 21:21:37.410 ,5,1,5.,12.0,0.,12.0,0.,12.0,0.,12.0
1979-07-05 21:21:49.410 ,5,1,8.,12.0,0.,12.0,0.,12.0,0.,12.0
1979-07-05 21:22:01.410 ,5,0,12.,12.0,0.,12.0,0.,12.0,0.,12.0
1979-07-05 21:22:13.410 ,5,0,9.,12.0,0.,12.0,0.,12.0,0.,12.0
1979-07-05 21:22:25.410 ,4,1,11.,12.0,0.,12.0,0.,12.0,0.,12.0
1979-07-05 21:22:37.410 ,4,1,11.,12.0,0.,12.0,0.,12.0,0.,12.0
1979-07-05 21:22:49.410 ,4,0,8.,12.0,0.,12.0,0.,12.0,0.,12.0
1979-07-05 21:23:01.410 ,4,0,9.,12.0,0.,12.0,0.,12.0,0.,12.0
1979-07-05 21:23:13.410 ,3,1,8.,12.0,0.,12.0,0.,12.0,0.,12.0
1979-07-05 21:23:25.410 ,3,1,8.,12.0,0.,12.0,0.,12.0,0.,12.0
1979-07-05 21:23:37.410 ,3,0,5.,12.0,0.,12.0,0.,12.0,0.,12.0
1979-07-05 21:23:49.410 ,3,0,7.,12.0,0.,12.0,0.,12.0,0.,12.0
1979-07-05 21:24:01.410 ,2,1,7.,12.0,0.,12.0,0.,12.0,0.,12.0
1979-07-05 21:24:13.410 ,2,1,4.,12.0,0.,12.0,0.,12.0,0.,12.0
1979-07-05 21:24:25.410 ,2,0,4.,12.0,0.,12.0,0.,12.0,0.,12.0
1979-07-05 21:24:37.410 ,2,0,6.,12.0,0.,12.0,0.,12.0,0.,12.0
1979-07-05 21:24:49.410 ,1,1,8.,12.0,0.,12.0,0.,12.0,0.,12.0
1979-07-05 21:25:01.410 ,1,1,3.,12.0,0.,12.0,0.,12.0,0.,12.0
1979-07-05 21:25:13.410 ,1,0,8.,12.0,0.,12.0,0.,12.0,0.,12.0
1979-07-05 21:25:25.410 ,1,0,2.,12.0,0.,12.0,0.,12.0,0.,12.0
1979-07-05 21:25:37.410 ,0,1,1.,12.0,0.,12.0,0.,12.0,0.,12.0
1979-07-05 21:25:49.410 ,0,1,6.,12.0,0.,12.0,0.,12.0,0.,12.0
1979-07-05 21:26:01.410 ,0,0,5.,12.0,0.,12.0,0.,12.0,0.,12.0
1979-07-05 21:26:13.410 ,0,0,6.,12.0,0.,12.0,0.,12.0,0.,12.0
1979-07-05 21:26:25.410 ,0,1,6.,12.0,0.,12.0,0.,12.0,0.,12.0
1979-07-05 21:26:37.410 ,0,1,5.,12.0,0.,12.0,0.,12.0,0.,12.0
1979-07-05 21:26:49.410 ,0,0,2.,12.0,0.,12.0,0.,12.0,0.,12.0
1979-07-05 21:27:01.410 ,0,0,3.,12.0,0.,12.0,0.,12.0,0.,12.0
1979-07-05 21:27:13.410 ,1,1,6.,12.0,0.,12.0,0.,12.0,0.,12.0
1979-07-05 21:27:25.410 ,1,1,4.,12.0,0.,12.0,0.,12.0,0.,12.0
1979-07-05 21:27:37.410 ,1,0,3.,12.0,0.,12.0,0.,12.0,0.,12.0
1979-07-05 21:27:49.410 ,1,0,7.,12.0,0.,12.0,0.,12.0,0.,12.0
1979-07-05 21:28:01.410 ,2,1,10.,12.0,0.,12.0,0.,12.0,0.,12.0
1979-07-05 21:28:13.410 ,2,1,4.,12.0,0.,12.0,0.,12.0,0.,12.0
1979-07-05 21:28:25.410 ,2,0,3.,12.0,0.,12.0,0.,12.0,0.,12.0
1979-07-05 21:28:37.410 ,2,0,9.,12.0,0.,12.0,0.,12.0,0.,12.0
1979-07-05 21:28:49.410 ,3,1,3.,12.0,0.,12.0,0.,12.0,0.,12.0
1979-07-05 21:29:01.410 ,3,1,3.,12.0,0.,12.0,0.,12.0,0.,12.0
1979-07-05 21:29:13.410 ,3,0,8.,12.0,0.,12.0,0.,12.0,0.,12.0
1979-07-05 21:29:25.410 ,3,0,5.,12.0,0.,12.0,0.,12.0,0.,12.0
1979-07-05 21:29:37.410 ,4,1,1.,12.0,0.,12.0,0.,12.0,0.,12.0
1979-07-05 21:29:49.410 ,4,1,7.,12.0,0.,12.0,0.,12.0,0.,12.0
1979-07-05 21:30:01.410 ,4,0,11.,12.0,0.,12.0,0.,12.0,0.,12.0
1979-07-05 21:30:13.410 ,4,0,10.,12.0,0.,12.0,0.,12.0,0.,12.0
1979-07-05 21:30:25.410 ,5,1,6.,12.0,0.,12.0,0.,12.0,0.,12.0
1979-07-05 21:30:37.410 ,5,1,11.,12.0,0.,12.0,0.,12.0,0.,12.0
1979-07-05 21:30:49.410 ,5,0,7.,12.0,0.,12.0,0.,12.0,0.,12.0
1979-07-05 21:31:01.410 ,5,0,9.,12.0,0.,12.0,0.,12.0,0.,12.0
1979-07-05 21:31:13.410 ,6,1,11.,12.0,0.,12.0,0.,12.0,0.,12.0
1979-07-05 21:31:25.410 ,6,1,10.,12.0,0.,12.0,0.,12.0,0.,12.0
1979-07-05 21:31:37.410 ,6,0,9.,12.0,0.,12.0,0.,12.0,0.,12.0
1979-07-05 21:31:49.410 ,6,0,8.,12.0,0.,12.0,0.,12.0,0.,12.0
1979-07-05 21:32:01.410 ,7,1,9.,12.0,0.,12.0,0.,12.0,0.,12.0
1979-07-05 21:32:13.410 ,7,1,4.,12.0,0.,12.0,0.,12.0,0.,12.0
1979-07-05 21:32:25.410 ,7,0,0.,12.0,0.,12.0,0.,12.0,0.,12.0
1979-07-05 21:32:37.410 ,7,0,0.,12.0,0.,12.0,0.,12.0,0.,12.0
1979-07-05 21:32:49.410 ,7,1,0.,12.0,0.,12.0,0.,12.0,0.,12.0
1979-07-05 21:33:01.410 ,7,1,0.,12.0,0.,12.0,0.,12.0,0.,12.0
1979-07-05 21:33:13.410 ,7,0,0.,12.0,0.,12.0,0.,12.0,0.,12.0
1979-07-05 21:33:25.410 ,7,0,0.,12.0,0.,12.0,0.,12.0,0.,12.0
1979-07-05 21:33:37.410 ,6,1,0.,12.0,0.,12.0,0.,12.0,0.,12.0
1979-07-05 21:33:49.410 ,6,1,5.,12.0,0.,12.0,0.,12.0,0.,12.0
1979-07-05 21:34:01.410 ,6,0,7.,12.0,0.,12.0,0.,12.0,0.,12.0
1979-07-05 21:34:13.410 ,6,0,5.,12.0,0.,12.0,0.,12.0,0.,12.0
1979-07-05 21:34:25.410 ,5,1,14.,12.0,0.,12.0,0.,12.0,0.,12.0
1979-07-05 21:34:37.410 ,5,1,12.,12.0,0.,12.0,0.,12.0,0.,12.0
1979-07-05 21:34:49.410 ,5,0,16.,12.0,0.,12.0,0.,12.0,0.,12.0
1979-07-05 21:35:01.410 ,5,0,10.,12.0,0.,12.0,0.,12.0,0.,12.0
1979-07-05 21:35:13.410 ,4,1,18.,12.0,0.,12.0,0.,12.0,0.,12.0
1979-07-05 21:35:25.410 ,4,1,16.,12.0,0.,12.0,0.,12.0,0.,12.0
1979-07-05 21:35:37.410 ,4,0,12.,12.0,0.,12.0,0.,12.0,0.,12.0
1979-07-05 21:35:49.410 ,4,0,16.,12.0,0.,12.0,0.,12.0,0.,12.0
1979-07-05 21:36:01.410 ,3,1,18.,12.0,0.,12.0,0.,12.0,0.,12.0
1979-07-05 21:36:13.410 ,3,1,16.,12.0,0.,12.0,0.,12.0,0.,12.0
1979-07-05 21:36:25.410 ,3,0,14.,12.0,0.,12.0,0.,12.0,0.,12.0
1979-07-05 21:36:37.410 ,3,0,13.,12.0,0.,12.0,0.,12.0,0.,12.0
1979-07-05 21:36:49.410 ,2,1,9.,12.0,0.,12.0,0.,12.0,0.,12.0
1979-07-05 21:37:01.410 ,2,1,9.,12.0,0.,12.0,0.,12.0,0.,12.0
1979-07-05 21:37:13.410 ,2,0,9.,12.0,0.,12.0,0.,12.0,0.,12.0
1979-07-05 21:37:25.410 ,2,0,11.,12.0,0.,12.0,0.,12.0,0.,12.0
1979-07-05 21:37:37.410 ,1,1,3.,12.0,0.,12.0,0.,12.0,0.,12.0
1979-07-05 21:37:49.410 ,1,1,9.,12.0,0.,12.0,0.,12.0,0.,12.0
1979-07-05 21:38:01.410 ,1,0,8.,12.0,0.,12.0,0.,12.0,0.,12.0
1979-07-05 21:38:13.410 ,1,0,3.,12.0,0.,12.0,0.,12.0,0.,12.0
1979-07-05 21:38:25.410 ,0,1,11.,12.0,0.,12.0,0.,12.0,0.,12.0
1979-07-05 21:38:37.410 ,0,1,10.,12.0,0.,12.0,0.,12.0,1.,12.0
1979-07-05 21:38:49.410 ,0,0,12.,12.0,0.,12.0,0.,12.0,0.,12.0
1979-07-05 21:39:01.410 ,0,0,14.,12.0,0.,12.0,0.,12.0,0.,12.0
1979-07-05 21:39:13.410 ,0,1,15.,12.0,0.,12.0,0.,12.0,0.,12.0
1979-07-05 21:39:25.410 ,0,1,7.,12.0,0.,12.0,0.,12.0,0.,12.0
1979-07-05 21:39:37.410 ,0,0,13.,12.0,0.,12.0,0.,12.0,0.,12.0
1979-07-05 21:39:49.410 ,0,0,11.,12.0,0.,12.0,0.,12.0,0.,12.0
1979-07-05 21:40:01.410 ,1,1,6.,12.0,0.,12.0,0.,12.0,0.,12.0
1979-07-05 21:40:13.410 ,1,1,10.,12.0,0.,12.0,0.,12.0,0.,12.0
1979-07-05 21:40:25.410 ,1,0,9.,12.0,0.,12.0,0.,12.0,0.,12.0
1979-07-05 21:40:37.410 ,1,0,11.,12.0,0.,12.0,0.,12.0,0.,12.0
1979-07-05 21:40:49.410 ,2,1,6.,12.0,0.,12.0,0.,12.0,0.,12.0
1979-07-05 21:41:01.410 ,2,1,9.,12.0,0.,12.0,0.,12.0,0.,12.0
1979-07-05 21:41:13.410 ,2,0,11.,12.0,0.,12.0,0.,12.0,0.,12.0
1979-07-05 21:41:25.410 ,2,0,7.,12.0,0.,12.0,0.,12.0,0.,12.0
1979-07-05 21:41:37.410 ,3,1,5.,12.0,0.,12.0,0.,12.0,0.,12.0
1979-07-05 21:41:49.410 ,3,1,16.,12.0,0.,12.0,0.,12.0,0.,12.0
1979-07-05 21:42:01.410 ,3,0,11.,12.0,0.,12.0,0.,12.0,0.,12.0
1979-07-05 21:42:13.410 ,3,0,13.,12.0,0.,12.0,0.,12.0,0.,12.0
1979-07-05 21:42:25.410 ,4,1,13.,12.0,0.,12.0,0.,12.0,0.,12.0
1979-07-05 21:42:37.410 ,4,1,12.,12.0,0.,12.0,0.,12.0,0.,12.0
1979-07-05 21:42:49.410 ,4,0,20.,12.0,0.,12.0,0.,12.0,0.,12.0
1979-07-05 21:43:01.410 ,4,0,15.,12.0,0.,12.0,0.,12.0,0.,12.0
1979-07-05 21:43:13.410 ,5,1,21.,12.0,0.,12.0,0.,12.0,0.,12.0
1979-07-05 21:43:25.410 ,5,1,16.,12.0,0.,12.0,0.,12.0,0.,12.0
1979-07-05 21:43:37.410 ,5,0,25.,12.0,0.,12.0,0.,12.0,0.,12.0
1979-07-05 21:43:49.410 ,5,0,19.,12.0,0.,12.0,0.,12.0,0.,12.0
1979-07-05 21:44:01.410 ,6,1,18.,12.0,0.,12.0,0.,12.0,0.,12.0
1979-07-05 21:44:13.410 ,6,1,19.,12.0,0.,12.0,0.,12.0,0.,12.0
1979-07-05 21:44:25.410 ,6,0,12.,12.0,0.,12.0,0.,12.0,0.,12.0
1979-07-05 21:44:37.410 ,6,0,15.,12.0,0.,12.0,0.,12.0,0.,12.0
1979-07-05 21:44:49.410 ,7,1,14.,12.0,0.,12.0,0.,12.0,0.,12.0
1979-07-05 21:45:01.410 ,7,1,9.,12.0,0.,12.0,0.,12.0,0.,12.0
1979-07-05 21:45:13.410 ,7,0,0.,12.0,0.,12.0,0.,12.0,0.,12.0
1979-07-05 21:45:25.410 ,7,0,0.,12.0,0.,12.0,0.,12.0,0.,12.0
1979-07-05 21:45:37.410 ,7,1,0.,12.0,0.,12.0,0.,12.0,0.,12.0
1979-07-05 21:45:49.410 ,7,1,0.,12.0,0.,12.0,0.,12.0,0.,12.0
1979-07-05 21:46:01.410 ,7,0,0.,12.0,0.,12.0,0.,12.0,0.,12.0
1979-07-05 21:46:13.410 ,7,0,0.,12.0,0.,12.0,0.,12.0,0.,12.0
1979-07-05 21:46:25.410 ,6,1,0.,12.0,0.,12.0,0.,12.0,0.,12.0
1979-07-05 21:46:37.410 ,6,1,19.,12.0,0.,12.0,0.,12.0,0.,12.0
1979-07-05 21:46:49.410 ,6,0,22.,12.0,0.,12.0,0.,12.0,0.,12.0
1979-07-05 21:47:01.410 ,6,0,26.,12.0,0.,12.0,0.,12.0,0.,12.0
1979-07-05 21:47:13.410 ,5,1,26.,12.0,0.,12.0,0.,12.0,0.,12.0
1979-07-05 21:47:25.410 ,5,1,34.,12.0,0.,12.0,0.,12.0,0.,12.0
1979-07-05 21:47:37.410 ,5,0,29.,12.0,0.,12.0,0.,12.0,0.,12.0
1979-07-05 21:47:49.410 ,5,0,28.,12.0,0.,12.0,0.,12.0,0.,12.0
1979-07-05 21:48:01.410 ,4,1,33.,12.0,0.,12.0,0.,12.0,1.,12.0
1979-07-05 21:48:13.410 ,4,1,21.,12.0,0.,12.0,0.,12.0,0.,12.0
1979-07-05 21:48:25.410 ,4,0,47.,12.0,0.,12.0,0.,12.0,0.,12.0
1979-07-05 21:48:37.410 ,4,0,28.,12.0,0.,12.0,0.,12.0,0.,12.0
1979-07-05 21:48:49.410 ,3,1,22.,12.0,0.,12.0,0.,12.0,0.,12.0
1979-07-05 21:49:01.410 ,3,1,19.,12.0,0.,12.0,0.,12.0,0.,12.0
1979-07-05 21:49:13.410 ,3,0,8.,12.0,0.,12.0,0.,12.0,0.,12.0
1979-07-05 21:49:25.410 ,3,0,21.,12.0,0.,12.0,0.,12.0,0.,12.0
1979-07-05 21:49:37.410 ,2,1,14.,12.0,0.,12.0,0.,12.0,0.,12.0
1979-07-05 21:49:49.410 ,2,1,16.,12.0,0.,12.0,0.,12.0,0.,12.0
1979-07-05 21:50:01.410 ,2,0,12.,12.0,0.,12.0,0.,12.0,0.,12.0
1979-07-05 21:50:13.410 ,2,0,13.,12.0,0.,12.0,0.,12.0,0.,12.0
1979-07-05 21:50:25.410 ,1,1,18.,12.0,0.,12.0,0.,12.0,0.,12.0
1979-07-05 21:50:37.410 ,1,1,17.,12.0,0.,12.0,0.,12.0,0.,12.0
1979-07-05 21:50:49.410 ,0,0,20.,12.0,0.,12.0,0.,12.0,0.,12.0
1979-07-05 21:51:01.410 ,0,0,23.,12.0,0.,12.0,0.,12.0,0.,12.0
1979-07-05 21:51:20.010 ,0,0,,0,,0,,0,,0
1979-07-05 21:51:32.010 ,0,0,21.,12.0,0.,12.0,0.,12.0,0.,12.0
1979-07-05 21:51:37.410 ,0,0,18.,12.0,0.,12.0,0.,12.0,0.,12.0
1979-07-05 21:51:49.410 ,0,0,13.,12.0,0.,12.0,0.,12.0,0.,12.0
1979-07-05 21:52:01.410 ,0,0,22.,12.0,0.,12.0,0.,12.0,0.,12.0
1979-07-05 21:52:13.410 ,0,0,23.,12.0,0.,12.0,0.,12.0,0.,12.0
1979-07-05 21:52:25.410 ,0,0,20.,12.0,0.,12.0,0.,12.0,0.,12.0
1979-07-05 21:52:37.410 ,0,0,26.,12.0,0.,12.0,0.,12.0,0.,12.0
1979-07-05 21:52:49.410 ,7,0,31.,12.0,0.,12.0,0.,12.0,0.,12.0
1979-07-05 21:53:01.410 ,7,0,0.,12.0,0.,12.0,0.,12.0,0.,12.0
1979-07-05 21:53:13.410 ,7,0,0.,12.0,0.,12.0,0.,12.0,0.,12.0
1979-07-05 21:53:25.410 ,7,0,0.,12.0,0.,12.0,0.,12.0,0.,12.0
1979-07-05 21:53:37.410 ,7,0,0.,12.0,0.,12.0,0.,12.0,0.,12.0
1979-07-05 21:53:49.410 ,7,0,0.,12.0,0.,12.0,0.,12.0,0.,12.0
1979-07-05 21:54:01.410 ,7,0,0.,12.0,0.,12.0,0.,12.0,0.,12.0
1979-07-05 21:54:13.410 ,7,0,0.,12.0,0.,12.0,0.,12.0,0.,12.0
1979-07-05 21:54:25.410 ,7,0,0.,12.0,0.,12.0,0.,12.0,0.,12.0
1979-07-05 21:54:37.410 ,7,0,0.,12.0,0.,12.0,0.,12.0,0.,12.0
1979-07-05 21:54:49.410 ,7,0,0.,12.0,0.,12.0,0.,12.0,0.,12.0
1979-07-05 21:55:01.410 ,7,0,0.,12.0,0.,12.0,0.,12.0,0.,12.0
1979-07-05 21:55:13.410 ,4,1,6.,12.0,0.,12.0,0.,12.0,0.,12.0
1979-07-05 21:55:25.410 ,4,1,28.,12.0,0.,12.0,0.,12.0,0.,12.0
1979-07-05 21:55:37.410 ,0,1,26.,12.0,0.,12.0,0.,12.0,0.,12.0
1979-07-05 21:55:49.410 ,0,1,16.,12.0,0.,12.0,0.,12.0,0.,12.0
1979-07-05 21:56:01.410 ,3,1,13.,12.0,0.,12.0,0.,12.0,0.,12.0
1979-07-05 21:56:13.410 ,3,1,24.,12.0,0.,12.0,0.,12.0,0.,12.0
1979-07-05 21:56:25.410 ,7,1,21.,12.0,0.,12.0,0.,12.0,0.,12.0
1979-07-05 21:56:37.410 ,7,1,15.,12.0,0.,12.0,0.,12.0,0.,12.0
1979-07-05 21:56:49.410 ,4,1,1.,12.0,0.,12.0,0.,12.0,0.,12.0
1979-07-05 21:57:01.410 ,4,1,29.,12.0,0.,12.0,0.,12.0,0.,12.0
1979-07-05 21:57:13.410 ,0,1,16.,12.0,0.,12.0,0.,12.0,0.,12.0
1979-07-05 21:57:25.410 ,0,1,20.,12.0,0.,12.0,0.,12.0,0.,12.0
1979-07-05 21:57:37.410 ,3,1,18.,12.0,0.,12.0,0.,12.0,0.,12.0
1979-07-05 21:57:49.410 ,3,1,15.,12.0,0.,12.0,0.,12.0,0.,12.0
1979-07-05 21:58:01.410 ,7,1,19.,12.0,0.,12.0,0.,12.0,0.,12.0
1979-07-05 21:58:13.410 ,7,1,16.,12.0,0.,12.0,0.,12.0,0.,12.0
1979-07-05 21:58:25.410 ,4,1,5.,12.0,0.,12.0,0.,12.0,0.,12.0
1979-07-05 21:58:37.410 ,4,1,25.,12.0,0.,12.0,0.,12.0,0.,12.0
1979-07-05 21:58:49.410 ,0,1,24.,12.0,0.,12.0,0.,12.0,0.,12.0
1979-07-05 21:59:01.410 ,0,1,14.,12.0,0.,12.0,0.,12.0,0.,12.0
1979-07-05 21:59:13.410 ,0,0,14.,12.0,0.,12.0,0.,12.0,0.,12.0
1979-07-05 21:59:25.410 ,0,0,18.,12.0,0.,12.0,0.,12.0,0.,12.0
1979-07-05 21:59:37.410 ,0,0,17.,12.0,0.,12.0,0.,12.0,0.,12.0
1979-07-05 21:59:49.410 ,0,0,26.,12.0,0.,12.0,0.,12.0,0.,12.0
1979-07-05 22:00:01.410 ,4,1,5.,12.0,0.,12.0,0.,12.0,0.,12.0
1979-07-05 22:00:13.410 ,4,1,21.,12.0,0.,12.0,0.,12.0,0.,12.0
1979-07-05 22:00:25.410 ,0,1,16.,12.0,0.,12.0,0.,12.0,0.,12.0
1979-07-05 22:00:37.410 ,0,1,20.,12.0,0.,12.0,0.,12.0,0.,12.0
1979-07-05 22:00:49.410 ,3,1,20.,12.0,0.,12.0,0.,12.0,0.,12.0
1979-07-05 22:01:01.410 ,3,1,12.,12.0,0.,12.0,0.,12.0,0.,12.0
1979-07-05 22:01:13.410 ,7,1,31.,12.0,0.,12.0,0.,12.0,0.,12.0
1979-07-05 22:01:25.410 ,7,1,17.,12.0,0.,12.0,0.,12.0,0.,12.0
1979-07-05 22:01:37.410 ,4,1,1.,12.0,0.,12.0,0.,12.0,0.,12.0
1979-07-05 22:01:49.410 ,4,1,17.,12.0,0.,12.0,0.,12.0,0.,12.0
1979-07-05 22:02:01.410 ,0,1,17.,12.0,0.,12.0,0.,12.0,0.,12.0
1979-07-05 22:02:13.410 ,0,1,13.,12.0,0.,12.0,0.,12.0,0.,12.0
1979-07-05 22:02:25.410 ,3,1,8.,12.0,0.,12.0,0.,12.0,0.,12.0
1979-07-05 22:02:37.410 ,3,1,10.,12.0,0.,12.0,0.,12.0,0.,12.0
1979-07-05 22:02:49.410 ,7,1,20.,12.0,0.,12.0,0.,12.0,0.,12.0
1979-07-05 22:03:01.410 ,7,1,15.,12.0,0.,12.0,0.,12.0,0.,12.0
1979-07-05 22:03:13.410 ,4,1,3.,12.0,0.,12.0,0.,12.0,0.,12.0
1979-07-05 22:03:25.410 ,4,1,21.,12.0,0.,12.0,0.,12.0,0.,12.0
1979-07-05 22:03:37.410 ,0,1,18.,12.0,0.,12.0,0.,12.0,0.,12.0
1979-07-05 22:03:49.410 ,0,1,19.,12.0,0.,12.0,0.,12.0,0.,12.0
1979-07-05 22:04:01.410 ,3,1,12.,12.0,0.,12.0,0.,12.0,0.,12.0
1979-07-05 22:04:13.410 ,3,1,7.,12.0,0.,12.0,0.,12.0,0.,12.0
1979-07-05 22:04:25.410 ,7,1,7.,12.0,0.,12.0,0.,12.0,1.,12.0
1979-07-05 22:04:37.410 ,7,1,19.,12.0,0.,12.0,0.,12.0,0.,12.0
1979-07-05 22:04:49.410 ,4,1,4.,12.0,0.,12.0,0.,12.0,0.,12.0
1979-07-05 22:05:01.410 ,4,1,15.,12.0,0.,12.0,0.,12.0,0.,12.0
1979-07-05 22:05:13.410 ,0,1,10.,12.0,0.,12.0,0.,12.0,0.,12.0
1979-07-05 22:05:25.410 ,0,1,12.,12.0,0.,12.0,0.,12.0,0.,12.0
1979-07-05 22:05:37.410 ,0,0,6.,12.0,0.,12.0,0.,12.0,0.,12.0
1979-07-05 22:05:49.410 ,0,0,9.,12.0,0.,12.0,0.,12.0,0.,12.0
1979-07-05 22:06:01.410 ,0,0,15.,12.0,0.,12.0,0.,12.0,0.,12.0
1979-07-05 22:06:13.410 ,0,0,15.,12.0,0.,12.0,0.,12.0,0.,12.0
1979-07-05 22:06:25.410 ,5,1,1.,12.0,0.,12.0,0.,12.0,0.,12.0
1979-07-05 22:06:37.410 ,5,1,18.,12.0,0.,12.0,0.,12.0,0.,12.0
1979-07-05 22:06:49.410 ,5,0,10.,12.0,0.,12.0,0.,12.0,0.,12.0
1979-07-05 22:07:01.410 ,5,0,20.,12.0,0.,12.0,0.,12.0,0.,12.0
1979-07-05 22:07:13.410 ,4,1,19.,12.0,0.,12.0,0.,12.0,0.,12.0
1979-07-05 22:07:25.410 ,4,1,11.,12.0,0.,12.0,0.,12.0,0.,12.0
1979-07-05 22:07:37.410 ,4,0,15.,12.0,0.,12.0,0.,12.0,0.,12.0
1979-07-05 22:07:49.410 ,4,0,14.,12.0,0.,12.0,0.,12.0,0.,12.0
1979-07-05 22:08:01.410 ,3,1,9.,12.0,0.,12.0,0.,12.0,0.,12.0
1979-07-05 22:08:13.410 ,3,1,6.,12.0,0.,12.0,0.,12.0,0.,12.0
1979-07-05 22:08:25.410 ,3,0,3.,12.0,0.,12.0,0.,12.0,0.,12.0
1979-07-05 22:08:37.410 ,3,0,5.,12.0,0.,12.0,0.,12.0,0.,12.0
1979-07-05 22:08:49.410 ,2,1,6.,12.0,0.,12.0,0.,12.0,0.,12.0
1979-07-05 22:09:01.410 ,2,1,10.,12.0,0.,12.0,0.,12.0,0.,12.0
1979-07-05 22:09:13.410 ,2,0,7.,12.0,0.,12.0,0.,12.0,0.,12.0
1979-07-05 22:09:25.410 ,2,0,11.,12.0,0.,12.0,0.,12.0,0.,12.0
1979-07-05 22:09:37.410 ,1,1,7.,12.0,0.,12.0,0.,12.0,0.,12.0
1979-07-05 22:09:49.410 ,1,1,7.,12.0,0.,12.0,0.,12.0,0.,12.0
1979-07-05 22:10:01.410 ,1,0,11.,12.0,0.,12.0,0.,12.0,0.,12.0
1979-07-05 22:10:13.410 ,1,0,6.,12.0,0.,12.0,0.,12.0,0.,12.0
1979-07-05 22:10:25.410 ,0,1,5.,12.0,0.,12.0,0.,12.0,0.,12.0
1979-07-05 22:10:37.410 ,0,1,8.,12.0,0.,12.0,0.,12.0,0.,12.0
1979-07-05 22:10:49.410 ,0,0,4.,12.0,0.,12.0,0.,12.0,0.,12.0
1979-07-05 22:11:01.410 ,0,0,6.,12.0,0.,12.0,0.,12.0,0.,12.0
1979-07-05 22:11:13.410 ,0,1,4.,12.0,0.,12.0,0.,12.0,1.,12.0
1979-07-05 22:11:25.410 ,0,1,6.,12.0,0.,12.0,0.,12.0,0.,12.0
1979-07-05 22:11:37.410 ,0,0,2.,12.0,0.,12.0,0.,12.0,0.,12.0
1979-07-05 22:11:49.410 ,0,0,1.,12.0,0.,12.0,0.,12.0,0.,12.0
1979-07-05 22:12:01.410 ,1,1,8.,12.0,0.,12.0,0.,12.0,0.,12.0
1979-07-05 22:12:13.410 ,1,1,8.,12.0,0.,12.0,0.,12.0,0.,12.0
1979-07-05 22:12:25.410 ,1,0,9.,12.0,0.,12.0,0.,12.0,0.,12.0
1979-07-05 22:12:37.410 ,1,0,6.,12.0,0.,12.0,0.,12.0,0.,12.0
1979-07-05 22:12:49.410 ,2,1,15.,12.0,0.,12.0,0.,12.0,0.,12.0
1979-07-05 22:13:01.410 ,2,1,4.,12.0,0.,12.0,0.,12.0,1.,12.0
1979-07-05 22:13:13.410 ,2,0,6.,12.0,0.,12.0,0.,12.0,0.,12.0
1979-07-05 22:13:25.410 ,2,0,7.,12.0,0.,12.0,0.,12.0,0.,12.0
1979-07-05 22:13:37.410 ,3,1,9.,12.0,0.,12.0,0.,12.0,0.,12.0
1979-07-05 22:13:49.410 ,3,1,9.,12.0,0.,12.0,0.,12.0,0.,12.0
1979-07-05 22:14:01.410 ,3,0,9.,12.0,0.,12.0,0.,12.0,0.,12.0
1979-07-05 22:14:13.410 ,3,0,9.,12.0,0.,12.0,0.,12.0,0.,12.0
1979-07-05 22:14:25.410 ,4,1,10.,12.0,0.,12.0,0.,12.0,0.,12.0
1979-07-05 22:14:37.410 ,4,1,14.,12.0,0.,12.0,0.,12.0,0.,12.0
1979-07-05 22:14:49.410 ,4,0,6.,12.0,0.,12.0,0.,12.0,0.,12.0
1979-07-05 22:15:01.410 ,4,0,7.,12.0,0.,12.0,0.,12.0,0.,12.0
1979-07-05 22:15:13.410 ,5,1,10.,12.0,0.,12.0,0.,12.0,0.,12.0
1979-07-05 22:15:25.410 ,5,1,11.,12.0,0.,12.0,0.,12.0,0.,12.0
1979-07-05 22:15:37.410 ,5,0,7.,12.0,0.,12.0,0.,12.0,0.,12.0
1979-07-05 22:15:49.410 ,5,0,12.,12.0,0.,12.0,0.,12.0,0.,12.0
1979-07-05 22:16:01.410 ,6,1,10.,12.0,0.,12.0,0.,12.0,0.,12.0
1979-07-05 22:16:13.410 ,6,1,8.,12.0,0.,12.0,0.,12.0,0.,12.0
1979-07-05 22:16:25.410 ,6,0,8.,12.0,0.,12.0,0.,12.0,0.,12.0
1979-07-05 22:16:37.410 ,6,0,7.,12.0,0.,12.0,0.,12.0,0.,12.0
1979-07-05 22:16:49.410 ,7,1,14.,12.0,0.,12.0,0.,12.0,0.,12.0
1979-07-05 22:17:01.410 ,7,1,4.,12.0,0.,12.0,0.,12.0,0.,12.0